AFL1130 UUEE-URSS

Flight info

Callsign AFL1130
Flight time N/A
Altitude 35000
Route TOGMO3H TOGMO M56 ABAGI B105 NATIT DCT MOLED DCT LIDUS G242 ZG DCT ITAKA DCT OBBUD DCT AMKOL DCT GOTIK DCT MEMZA DCT VENFO DCT BINOL BINOL1K
Aircraft B77W/H-SDE1E2E3FGHIJ2J3J4J5M1RWXY/LB1D1

Departure

Time 2026-05-06 13:58
Airport Sheremetyevo International Airport (UUEE)

Arrival

Time N/A
Airport Sochi International Airport (URSS)
Time Latitude Longitude Altitude Speed Heading
2026-05-06 13:42 55.97782 37.41820 644 ft 0 kts 345°
2026-05-06 13:48 55.97781 37.41821 644 ft 2 kts 345°
2026-05-06 13:49 55.97759 37.41831 645 ft 2 kts 345°
2026-05-06 13:49 55.97739 37.41836 645 ft 4 kts 18°
2026-05-06 13:49 55.97724 37.41820 649 ft 4 kts 59°
2026-05-06 13:49 55.97714 37.41778 648 ft 4 kts 73°
2026-05-06 13:50 55.97707 37.41735 647 ft 2 kts 73°
2026-05-06 13:50 55.97707 37.41733 647 ft 0 kts 73°
2026-05-06 13:52 55.97707 37.41737 644 ft 2 kts 73°
2026-05-06 13:53 55.97725 37.41845 648 ft 12 kts 73°
2026-05-06 13:53 55.97749 37.41994 648 ft 12 kts 80°
2026-05-06 13:53 55.97736 37.42105 648 ft 5 kts 136°
2026-05-06 13:53 55.97709 37.42154 649 ft 6 kts 131°
2026-05-06 13:54 55.97696 37.42232 646 ft 9 kts 91°
2026-05-06 13:55 55.97861 37.43344 649 ft 19 kts 75°
2026-05-06 13:55 55.97900 37.43607 648 ft 19 kts 75°
2026-05-06 13:55 55.97935 37.43840 651 ft 19 kts 75°
2026-05-06 13:56 55.97929 37.44016 651 ft 11 kts 138°
2026-05-06 13:56 55.97859 37.44068 648 ft 11 kts 162°
2026-05-06 13:56 55.97788 37.44053 649 ft 11 kts 220°
2026-05-06 13:56 55.97778 37.44008 651 ft 8 kts 253°
2026-05-06 13:57 55.97733 37.43717 649 ft 43 kts 255°
2026-05-06 13:57 55.97593 37.42756 644 ft 117 kts 254°
2026-05-06 13:57 55.97321 37.40988 650 ft 175 kts 255°
2026-05-06 13:57 55.97020 37.38797 1151 ft 181 kts 259°
2026-05-06 13:58 55.96700 37.36616 1965 ft 182 kts 258°
2026-05-06 13:58 55.96404 37.34718 2631 ft 182 kts 255°
2026-05-06 13:58 55.96012 37.32412 3176 ft 200 kts 256°
2026-05-06 13:58 55.95595 37.29829 3505 ft 230 kts 256°
2026-05-06 13:59 55.95146 37.27025 4226 ft 234 kts 255°
2026-05-06 13:59 55.94700 37.24224 5153 ft 236 kts 256°
2026-05-06 13:59 55.94259 37.21431 6142 ft 233 kts 257°
2026-05-06 13:59 55.93822 37.18661 7046 ft 234 kts 257°
2026-05-06 14:00 55.93375 37.15810 7741 ft 244 kts 256°
2026-05-06 14:00 55.92915 37.12881 8517 ft 249 kts 256°
2026-05-06 14:00 55.92440 37.09881 9397 ft 250 kts 256°
2026-05-06 14:00 55.91962 37.06866 9920 ft 255 kts 256°
2026-05-06 14:01 55.91670 37.03759 9979 ft 256 kts 274°
2026-05-06 14:01 55.92156 37.00693 10050 ft 263 kts 294°
2026-05-06 14:01 55.93176 36.97982 10776 ft 268 kts 309°
2026-05-06 14:01 55.94658 36.95825 11560 ft 278 kts 320°
2026-05-06 14:02 55.96263 36.93899 12442 ft 281 kts 321°
2026-05-06 14:02 55.98019 36.92283 13221 ft 294 kts 340°
2026-05-06 14:02 56.00101 36.92039 13806 ft 309 kts
2026-05-06 14:02 56.02158 36.93259 13855 ft 324 kts 26°
2026-05-06 14:03 56.04062 36.95509 13902 ft 327 kts 30°
2026-05-06 14:03 56.05946 36.97805 13893 ft 327 kts 29°
2026-05-06 14:03 56.07837 37.00065 13889 ft 325 kts 28°
2026-05-06 14:03 56.09744 37.02315 13879 ft 324 kts 28°
2026-05-06 14:04 56.11152 37.04261 13861 ft 323 kts 44°
2026-05-06 14:04 56.12332 37.07753 13960 ft 341 kts 68°
2026-05-06 14:04 56.12983 37.11923 14385 ft 359 kts 75°
2026-05-06 14:04 56.13572 37.16375 14843 ft 364 kts 75°
2026-05-06 14:05 56.14180 37.20825 14892 ft 371 kts 75°
2026-05-06 14:05 56.14381 37.22275 14888 ft 371 kts 75°
2026-05-06 14:05 56.14450 37.22763 14886 ft 371 kts 75°
2026-05-06 14:05 56.14844 37.27234 14865 ft 367 kts 93°
2026-05-06 14:06 56.14262 37.31698 14900 ft 364 kts 118°
2026-05-06 14:06 56.12819 37.35385 15190 ft 361 kts 138°
2026-05-06 14:06 56.10915 37.38184 16099 ft 357 kts 153°
2026-05-06 14:06 56.08718 37.40181 17064 ft 354 kts 160°
2026-05-06 14:07 56.06436 37.42003 17981 ft 358 kts 160°
2026-05-06 14:07 56.04133 37.43821 18741 ft 363 kts 160°
2026-05-06 14:07 56.01824 37.45699 19470 ft 366 kts 159°
2026-05-06 14:07 55.99495 37.47634 19892 ft 372 kts 159°
2026-05-06 14:08 55.97145 37.49618 19875 ft 373 kts 156°
2026-05-06 14:08 55.95066 37.52426 19874 ft 382 kts 133°
2026-05-06 14:08 55.93659 37.56481 20133 ft 392 kts 112°
2026-05-06 14:08 55.92973 37.61228 20898 ft 396 kts 101°
2026-05-06 14:09 55.92497 37.66080 21738 ft 399 kts 101°
2026-05-06 14:09 55.92000 37.70963 22518 ft 403 kts 101°
2026-05-06 14:09 55.91300 37.75794 23227 ft 406 kts 116°
2026-05-06 14:09 55.89948 37.80234 23858 ft 408 kts 123°
2026-05-06 14:10 55.88472 37.84577 24503 ft 411 kts 122°
2026-05-06 14:10 55.87029 37.89004 25161 ft 415 kts 121°
2026-05-06 14:10 55.85610 37.93500 25776 ft 419 kts 121°
2026-05-06 14:10 55.83950 37.97717 26239 ft 419 kts 139°
2026-05-06 14:11 55.81575 38.00661 26726 ft 416 kts 160°
2026-05-06 14:11 55.78816 38.02041 27350 ft 411 kts 178°
2026-05-06 14:11 55.75984 38.01899 27974 ft 406 kts 195°
2026-05-06 14:11 55.73314 38.00383 28509 ft 403 kts 209°
2026-05-06 14:12 55.70981 37.97687 29013 ft 400 kts 226°
2026-05-06 14:12 55.69026 37.94187 29540 ft 402 kts 229°
2026-05-06 14:12 55.67111 37.90796 29973 ft 406 kts 222°
2026-05-06 14:12 55.64625 37.88273 30271 ft 422 kts 202°
2026-05-06 14:13 55.61690 37.87208 30376 ft 443 kts 184°
2026-05-06 14:13 55.58574 37.87615 30472 ft 455 kts 176°
2026-05-06 14:13 55.55387 37.88263 30571 ft 467 kts 176°
2026-05-06 14:13 55.52126 37.88904 30689 ft 477 kts 176°
2026-05-06 14:14 55.48788 37.89509 30829 ft 486 kts 177°
2026-05-06 14:14 55.45402 37.90080 31052 ft 491 kts 177°
2026-05-06 14:14 55.41988 37.90639 31381 ft 493 kts 176°
2026-05-06 14:14 55.38608 37.91772 31659 ft 498 kts 163°
2026-05-06 14:15 55.35526 37.94534 32018 ft 499 kts 146°
2026-05-06 14:15 55.32688 37.98081 32364 ft 500 kts 146°
2026-05-06 14:15 55.29847 38.01597 32768 ft 500 kts 146°
2026-05-06 14:15 55.26992 38.05058 33267 ft 498 kts 146°
2026-05-06 14:16 55.24132 38.08465 33730 ft 496 kts 147°
2026-05-06 14:16 55.21265 38.11836 34124 ft 495 kts 147°
2026-05-06 14:16 55.18403 38.15177 34487 ft 494 kts 147°
2026-05-06 14:16 55.15544 38.18503 34832 ft 494 kts 147°
2026-05-06 14:17 55.09924 38.25029 34862 ft 495 kts 147°
2026-05-06 14:17 55.04207 38.31658 34857 ft 493 kts 147°
2026-05-06 14:18 54.98499 38.38258 34867 ft 492 kts 147°
2026-05-06 14:18 54.92797 38.44826 34850 ft 492 kts 147°
2026-05-06 14:19 54.87089 38.51379 34856 ft 491 kts 147°
2026-05-06 14:19 54.81383 38.57910 34858 ft 492 kts 147°
2026-05-06 14:20 54.75663 38.64430 34857 ft 492 kts 148°
2026-05-06 14:20 54.69823 38.70561 34859 ft 491 kts 150°
2026-05-06 14:21 54.63938 38.76569 34854 ft 491 kts 149°
2026-05-06 14:21 54.58082 38.82643 34852 ft 491 kts 149°
2026-05-06 14:22 54.52236 38.88688 34852 ft 490 kts 149°
2026-05-06 14:22 54.46392 38.94709 34849 ft 489 kts 149°
2026-05-06 14:23 54.40636 39.00866 34830 ft 485 kts 140°
2026-05-06 14:23 54.38319 39.05037 34853 ft 484 kts 124°
2026-05-06 14:23 54.36764 39.10126 34848 ft 480 kts 109°
2026-05-06 14:24 54.34852 39.19065 34854 ft 483 kts 110°
2026-05-06 14:24 54.31877 39.31582 34853 ft 487 kts 112°
2026-05-06 14:25 54.29257 39.42308 34854 ft 489 kts 112°
2026-05-06 14:25 54.27075 39.51236 34849 ft 490 kts 112°
2026-05-06 14:26 54.24445 39.61988 34843 ft 490 kts 112°
2026-05-06 14:26 54.21813 39.72707 34844 ft 489 kts 112°
2026-05-06 14:27 54.19176 39.83389 34846 ft 487 kts 112°
2026-05-06 14:27 54.16539 39.94018 34845 ft 486 kts 112°
2026-05-06 14:28 54.13901 40.04608 34847 ft 485 kts 113°
2026-05-06 14:28 54.11353 40.15237 34843 ft 484 kts 108°
2026-05-06 14:29 54.09434 40.26223 34853 ft 483 kts 106°
2026-05-06 14:29 54.07569 40.37209 34848 ft 484 kts 106°
2026-05-06 14:30 54.05659 40.48197 34853 ft 484 kts 107°
2026-05-06 14:30 54.03720 40.59178 34851 ft 484 kts 107°
2026-05-06 14:31 54.01770 40.70142 34850 ft 485 kts 107°
2026-05-06 14:31 53.99809 40.81105 34853 ft 485 kts 107°
2026-05-06 14:32 53.97841 40.92059 34850 ft 485 kts 107°
2026-05-06 14:32 53.95861 41.03013 34849 ft 485 kts 107°
2026-05-06 14:33 53.93995 41.14001 34852 ft 485 kts 105°
2026-05-06 14:33 53.92231 41.25034 34845 ft 485 kts 105°
2026-05-06 14:34 53.90441 41.36068 34842 ft 485 kts 105°
2026-05-06 14:34 53.88624 41.47065 34847 ft 485 kts 105°
2026-05-06 14:35 53.86791 41.58063 34842 ft 485 kts 105°
2026-05-06 14:35 53.84954 41.69038 34845 ft 485 kts 106°
2026-05-06 14:36 53.83100 41.80010 34843 ft 485 kts 106°
2026-05-06 14:36 53.81213 41.90967 34845 ft 485 kts 106°
2026-05-06 14:37 53.79315 42.01915 34844 ft 485 kts 106°
2026-05-06 14:37 53.77412 42.12848 34842 ft 485 kts 106°
2026-05-06 14:38 53.75501 42.23775 34845 ft 485 kts 106°
2026-05-06 14:38 53.73579 42.34693 34844 ft 485 kts 107°
2026-05-06 14:39 53.71649 42.45595 34845 ft 485 kts 107°
2026-05-06 14:39 53.69710 42.56491 34850 ft 484 kts 107°
2026-05-06 14:40 53.66770 42.66516 34851 ft 480 kts 133°
2026-05-06 14:40 53.64250 42.70196 34854 ft 479 kts 148°
2026-05-06 14:40 53.61284 42.72695 34855 ft 476 kts 158°
2026-05-06 14:41 53.55126 42.76913 34856 ft 479 kts 159°
2026-05-06 14:41 53.48951 42.81217 34862 ft 482 kts 158°
2026-05-06 14:42 53.42763 42.85634 34858 ft 484 kts 157°
2026-05-06 14:42 53.36570 42.90075 34857 ft 484 kts 157°
2026-05-06 14:43 53.30389 42.94491 34858 ft 483 kts 157°
2026-05-06 14:43 53.24210 42.98884 34859 ft 482 kts 157°
2026-05-06 14:44 53.18049 43.03253 34860 ft 480 kts 157°
2026-05-06 14:45 53.08853 43.09851 34860 ft 479 kts 156°
2026-05-06 14:45 53.02785 43.14389 34867 ft 478 kts 156°
2026-05-06 14:46 52.96725 43.18918 34867 ft 477 kts 156°
2026-05-06 14:46 52.90661 43.23412 34864 ft 477 kts 156°
2026-05-06 14:47 52.84588 43.27885 34866 ft 478 kts 156°
2026-05-06 14:47 52.78514 43.32342 34871 ft 478 kts 156°
2026-05-06 14:48 52.72440 43.36787 34871 ft 478 kts 156°
2026-05-06 14:48 52.66360 43.41224 34871 ft 478 kts 156°
2026-05-06 14:49 52.60278 43.45648 34871 ft 478 kts 156°
2026-05-06 14:49 52.54233 43.50034 34872 ft 478 kts 156°
2026-05-06 14:50 52.48150 43.54432 34874 ft 478 kts 156°
2026-05-06 14:50 52.42070 43.58815 34873 ft 477 kts 156°
2026-05-06 14:51 52.35993 43.63183 34877 ft 477 kts 156°
2026-05-06 14:51 52.29923 43.67533 34876 ft 476 kts 156°
2026-05-06 14:52 52.23865 43.71861 34876 ft 475 kts 156°
2026-05-06 14:52 52.17810 43.76174 34877 ft 474 kts 156°
2026-05-06 14:53 52.11762 43.80469 34876 ft 474 kts 156°
2026-05-06 14:53 52.05713 43.84752 34875 ft 474 kts 156°
2026-05-06 14:54 51.99672 43.89017 34874 ft 474 kts 156°
2026-05-06 14:54 51.93624 43.93275 34873 ft 474 kts 156°
2026-05-06 14:55 51.87574 43.97521 34878 ft 474 kts 156°
2026-05-06 14:55 51.81518 44.01759 34878 ft 474 kts 156°
2026-05-06 14:56 51.75459 44.05987 34875 ft 475 kts 156°
2026-05-06 14:56 51.69390 44.10209 34877 ft 475 kts 156°
2026-05-06 14:57 51.63323 44.14417 34875 ft 475 kts 156°
2026-05-06 14:57 51.57253 44.18615 34874 ft 475 kts 156°
2026-05-06 14:58 51.51185 44.22799 34882 ft 475 kts 156°
2026-05-06 14:58 51.48132 44.24900 35083 ft 477 kts 156°
2026-05-06 14:58 51.45085 44.26994 35428 ft 476 kts 156°
2026-05-06 14:58 51.42044 44.29081 35788 ft 475 kts 156°
2026-05-06 14:59 51.38998 44.31168 35877 ft 477 kts 156°
2026-05-06 14:59 51.32911 44.35330 35868 ft 474 kts 156°
2026-05-06 15:00 51.26862 44.39455 35872 ft 472 kts 156°
2026-05-06 15:00 51.20821 44.43561 35875 ft 472 kts 156°
2026-05-06 15:01 51.14492 44.46238 35879 ft 473 kts 172°
2026-05-06 15:01 51.07910 44.46352 35885 ft 474 kts 182°
2026-05-06 15:02 51.01323 44.45633 35878 ft 475 kts 183°
2026-05-06 15:02 50.94721 44.44926 35879 ft 476 kts 183°
2026-05-06 15:03 50.88112 44.44284 35883 ft 476 kts 182°
2026-05-06 15:03 50.81495 44.43670 35884 ft 476 kts 182°
2026-05-06 15:04 50.74892 44.43062 35885 ft 475 kts 182°
2026-05-06 15:04 50.68295 44.42454 35882 ft 474 kts 182°
2026-05-06 15:05 50.61719 44.41847 35890 ft 473 kts 182°
2026-05-06 15:05 50.55151 44.41244 35896 ft 472 kts 182°
2026-05-06 15:06 50.48605 44.40644 35890 ft 471 kts 182°
2026-05-06 15:06 50.42064 44.40047 35893 ft 470 kts 182°
2026-05-06 15:07 50.35572 44.39454 35893 ft 470 kts 182°
2026-05-06 15:07 50.30107 44.38957 35898 ft 470 kts 182°
2026-05-06 15:08 50.23594 44.38367 35899 ft 470 kts 182°
2026-05-06 15:08 50.17045 44.37775 35902 ft 471 kts 182°
2026-05-06 15:09 50.10503 44.37185 35905 ft 471 kts 182°
2026-05-06 15:09 50.03948 44.36595 35903 ft 472 kts 182°
2026-05-06 15:10 49.97386 44.36006 35906 ft 473 kts 182°
2026-05-06 15:10 49.90819 44.35419 35904 ft 473 kts 182°
2026-05-06 15:11 49.84236 44.34831 35910 ft 474 kts 182°
2026-05-06 15:11 49.77652 44.34246 35908 ft 474 kts 182°
2026-05-06 15:12 49.71065 44.33661 35912 ft 475 kts 182°
2026-05-06 15:12 49.64464 44.33077 35912 ft 475 kts 182°
2026-05-06 15:13 49.57876 44.33114 35919 ft 473 kts 171°
2026-05-06 15:13 49.51526 44.35575 35901 ft 470 kts 157°
2026-05-06 15:14 49.45495 44.39473 35920 ft 470 kts 155°
2026-05-06 15:14 49.39471 44.43402 35926 ft 471 kts 156°
2026-05-06 15:15 49.33425 44.47269 35927 ft 471 kts 156°
2026-05-06 15:15 49.27409 44.51072 35920 ft 471 kts 156°
2026-05-06 15:16 49.21353 44.54885 35929 ft 471 kts 156°
2026-05-06 15:16 49.15295 44.58692 35930 ft 470 kts 156°
2026-05-06 15:17 49.09243 44.62488 35923 ft 470 kts 156°
2026-05-06 15:17 49.03192 44.66273 35926 ft 470 kts 156°
2026-05-06 15:18 48.97139 44.70049 35934 ft 470 kts 156°
2026-05-06 15:18 48.91088 44.73815 35929 ft 470 kts 156°
2026-05-06 15:19 48.85096 44.77748 35932 ft 468 kts 150°
2026-05-06 15:19 48.79638 44.83055 35928 ft 466 kts 140°
2026-05-06 15:20 48.74560 44.89155 35924 ft 466 kts 140°
2026-05-06 15:20 48.69476 44.95243 35920 ft 466 kts 140°
2026-05-06 15:21 48.64367 45.01290 35922 ft 466 kts 141°
2026-05-06 15:21 48.59250 45.07310 35916 ft 466 kts 141°
2026-05-06 15:22 48.54123 45.13328 35912 ft 466 kts 141°
2026-05-06 15:22 48.48997 45.19331 35912 ft 467 kts 141°
2026-05-06 15:23 48.43870 45.25321 35911 ft 467 kts 141°
2026-05-06 15:23 48.38535 45.30898 35914 ft 468 kts 149°
2026-05-06 15:24 48.32685 45.35242 35910 ft 469 kts 153°
2026-05-06 15:24 48.26798 45.39481 35901 ft 469 kts 153°
2026-05-06 15:25 48.21033 45.43669 35900 ft 470 kts 152°
2026-05-06 15:25 48.15158 45.47959 35901 ft 470 kts 152°
2026-05-06 15:26 48.09276 45.52250 35898 ft 470 kts 152°
2026-05-06 15:26 48.03603 45.56377 35897 ft 470 kts 152°
2026-05-06 15:27 47.97714 45.60650 35893 ft 471 kts 153°
2026-05-06 15:27 47.92363 45.64521 35894 ft 471 kts 153°
2026-05-06 15:28 47.88058 45.67630 35890 ft 471 kts 153°
2026-05-06 15:28 47.82149 45.71887 35891 ft 471 kts 153°
2026-05-06 15:29 47.81326 45.72479 35888 ft 472 kts 153°
2026-05-06 15:30 47.76529 45.75927 35893 ft 472 kts 153°
2026-05-06 15:30 47.72983 45.78470 35888 ft 472 kts 153°
2026-05-06 15:31 47.69607 45.80888 35886 ft 472 kts 153°
2026-05-06 15:31 47.66976 45.82770 35889 ft 472 kts 153°
2026-05-06 15:32 47.58085 45.89115 35886 ft 472 kts 153°
2026-05-06 15:32 47.52166 45.93326 35888 ft 472 kts 153°
2026-05-06 15:33 47.47058 45.96952 35887 ft 472 kts 153°
2026-05-06 15:33 47.41310 46.01024 35886 ft 472 kts 153°
2026-05-06 15:34 47.35379 46.05215 35888 ft 473 kts 153°
2026-05-06 15:34 47.29475 46.09382 35886 ft 473 kts 153°
2026-05-06 15:35 47.23545 46.13560 35893 ft 473 kts 153°
2026-05-06 15:35 47.17610 46.17732 35892 ft 473 kts 154°
2026-05-06 15:36 47.12655 46.21207 35891 ft 473 kts 154°
2026-05-06 15:36 47.07106 46.25486 35888 ft 472 kts 143°
2026-05-06 15:37 47.02370 46.32120 35897 ft 471 kts 127°
2026-05-06 15:37 46.98816 46.40159 35892 ft 471 kts 121°
2026-05-06 15:38 46.95369 46.48317 35892 ft 471 kts 122°
2026-05-06 15:38 46.91873 46.56434 35890 ft 471 kts 122°
2026-05-06 15:39 46.88344 46.64510 35891 ft 471 kts 122°
2026-05-06 15:39 46.84800 46.72580 35889 ft 472 kts 123°
2026-05-06 15:40 46.81786 46.79428 35889 ft 471 kts 123°
2026-05-06 15:40 46.78240 46.87469 35889 ft 471 kts 123°
2026-05-06 15:41 46.74688 46.95504 35886 ft 471 kts 123°
2026-05-06 15:41 46.71132 47.03525 35892 ft 471 kts 123°
2026-05-06 15:42 46.67585 47.11545 35891 ft 471 kts 123°
2026-05-06 15:42 46.64081 47.19591 35891 ft 471 kts 122°
2026-05-06 15:43 46.60577 47.27639 35892 ft 471 kts 123°
2026-05-06 15:43 46.56539 47.34970 35887 ft 466 kts 146°
2026-05-06 15:44 46.53649 47.37107 35903 ft 466 kts 161°
2026-05-06 15:44 46.50483 47.38146 35889 ft 468 kts 175°
2026-05-06 15:44 46.43967 47.38430 35896 ft 471 kts 179°
2026-05-06 15:45 46.37389 47.38584 35899 ft 475 kts 178°
2026-05-06 15:45 46.30810 47.38804 35897 ft 477 kts 178°
2026-05-06 15:46 46.24168 47.39081 35895 ft 478 kts 178°
2026-05-06 15:46 46.17522 47.39374 35891 ft 477 kts 178°
2026-05-06 15:47 46.10896 47.39666 35893 ft 476 kts 178°
2026-05-06 15:47 46.09777 47.39714 35892 ft 476 kts 178°